x

West Oregon - 275nm West Of Coos Bay, Or (46002) Weather Station

11:20am - Mon 25th Sep 2017 All times are UTC.

  • Wind
    13mph, 16mph gusts
  • Air Temp 65°f
  • Sea Pressure 1022.2mb

More Historic Weather Station data

Upgrade to MSW Pro to gain access to the past 30 days of data for over 8000 Wavebouys and Weather Stations around the globe.

Join

Comparision Forecast

View Surf forecast
   
Mon 09/25 11:20am  -   -   -  13 16 mph 1022.2mb 65f
11:10am  -   -   -  13 16 mph 1022.2mb 65f
11:00am  -   -   -  13 16 mph 1022.3mb 65f
10:50am 3ft 7s 6s 13 16 mph 1022.3mb 65f
10:40am 3ft  -  6s 13 16 mph 1022.2mb 65f
10:30am  -   -   -  13 16 mph 1022.3mb 65f
10:20am  -   -   -  13 16 mph 1022.4mb 65f
10:10am  -   -   -  13 16 mph 1022.4mb 65f
10:00am  -   -   -  13 16 mph 1022.4mb 65f
9:50am 3.5ft 7s 6s 11 13 mph 1022.5mb 65f
9:40am 3.5ft  -  6s 11 13 mph 1022.5mb 65f
9:30am  -   -   -  11 13 mph 1022.5mb 65f
9:20am  -   -   -  13 16 mph 1022.6mb 64f
9:10am  -   -   -  11 13 mph 1022.6mb 64f
9:00am  -   -   -  11 13 mph 1022.6mb 65f
8:50am 3ft 8s 6s 11 13 mph 1022.7mb 64f
8:40am 3ft  -  6s 11 13 mph 1022.8mb 64f
8:30am  -   -   -  11 13 mph 1022.8mb 64f
8:20am  -   -   -  11 11 mph 1022.8mb 64f
8:10am  -   -   -  9 11 mph 1022.8mb 64f
8:00am  -   -   -  9 11 mph 1022.7mb 64f
7:50am 3.5ft 9s 6s 9 11 mph 1022.7mb 64f
7:40am 3.5ft  -  6s 7 9 mph 1022.6mb 64f
7:30am  -   -   -  7 9 mph 1022.5mb 64f
7:20am  -   -   -  7 9 mph 1022.6mb 64f
7:10am  -   -   -  9 11 mph 1022.8mb 64f
7:00am  -   -   -  9 11 mph 1022.8mb 64f
6:50am 3ft 8s 6s 9 9 mph 1022.8mb 64f
6:40am 3ft  -  6s 9 9 mph 1022.9mb 64f
6:30am  -   -   -  7 9 mph 1022.9mb 64f
6:20am  -   -   -  7 9 mph 1022.9mb 64f
6:10am  -   -   -  7 9 mph 1023mb 64f
6:00am  -   -   -  9 11 mph 1022.9mb 64f
5:50am 3ft 9s 6s 9 11 mph 1023.1mb 64f
5:40am 3ft  -  6s 9 11 mph 1023.1mb 64f
5:30am  -   -   -  9 11 mph 1023.2mb 64f
5:20am  -   -   -  9 11 mph 1023.1mb 64f
5:10am  -   -   -  9 11 mph 1023.1mb 64f
5:00am  -   -   -  9 9 mph 1023.2mb 64f
4:50am 3.5ft 9s 5s 9 11 mph 1023.3mb 64f
4:40am 3.5ft  -  5s 9 11 mph 1023.3mb 64f
4:30am  -   -   -  9 11 mph 1023.2mb 64f
4:20am  -   -   -  11 13 mph 1023.2mb 64f
4:10am  -   -   -  11 13 mph 1023.1mb 64f
4:00am  -   -   -  11 13 mph 1023.1mb 64f
3:50am 3.5ft 8s 5s 11 13 mph 1023.1mb 64f
3:40am  -   -   -  11 13 mph 1023.1mb 64f
3:30am  -   -   -  13 16 mph 1023.1mb 64f
3:20am  -   -   -  11 13 mph 1023mb 64f
3:10am  -   -   -  13 16 mph 1022.9mb 64f
3:00am  -   -   -  13 18 mph 1022.8mb 64f
2:50am 3.5ft 9s 5s 13 18 mph 1022.8mb 64f
2:40am 3.5ft  -  5s 13 18 mph 1022.7mb 64f
2:30am  -   -   -  13 16 mph 1022.8mb 64f
2:20am  -   -   -  13 16 mph 1022.8mb 64f
2:10am  -   -   -  13 16 mph 1022.8mb 64f
2:00am  -   -   -  13 16 mph 1022.8mb 64f
1:50am 3.5ft 9s 5s 13 18 mph 1022.8mb 64f
1:40am  -   -   -  13 16 mph 1022.8mb 64f
1:30am  -   -   -  13 16 mph 1022.8mb 64f
1:20am  -   -   -  13 16 mph 1022.8mb 63f
1:10am  -   -   -  13 16 mph 1022.7mb 63f
1:00am  -   -   -  11 13 mph 1022.6mb 63f
12:50am 3.5ft 7s 6s 11 13 mph 1022.6mb 63f
12:40am 3.5ft  -  6s 11 16 mph 1022.7mb 63f
12:30am  -   -   -  11 16 mph 1022.7mb 63f
12:20am  -   -   -  11 16 mph 1022.9mb 63f
12:10am  -   -   -  13 16 mph 1022.9mb 63f
12:00am  -   -   -  11 16 mph 1023mb 63f
Sun 09/24 11:50pm 3.5ft 9s 6s 13 16 mph 1023.1mb 63f
11:40pm 3.5ft  -  6s 13 16 mph 1023.1mb 63f
11:20pm  -   -   -  11 16 mph 1023.3mb 63f
11:10pm  -   -   -  11 13 mph 1023.3mb 63f
11:00pm  -   -   -  11 13 mph 1023.2mb 63f
10:50pm 3.5ft 6s 6s 11 13 mph 1023.3mb 63f
10:40pm 3.5ft  -  6s 9 13 mph 1023.4mb 62f
10:30pm  -   -   -  11 13 mph 1023.5mb 62f
10:20pm  -   -   -  11 16 mph 1023.6mb 62f
10:10pm  -   -   -  11 16 mph 1023.6mb 63f
10:00pm  -   -   -  9 11 mph 1023.6mb 62f
9:50pm 3.5ft 9s 6s 9 13 mph 1023.6mb 62f
9:40pm  -   -   -  9 11 mph 1023.6mb 63f
9:30pm  -   -   -  9 13 mph 1023.6mb 63f
9:20pm  -   -   -  9 11 mph 1023.7mb 63f
9:10pm  -   -   -  9 11 mph 1023.8mb 63f
9:00pm  -   -   -  9 11 mph 1023.8mb 62f
8:50pm 3.5ft  -  6s 9 11 mph 1023.8mb 62f
8:40pm 3.5ft 7s  -   -  mph - -
8:30pm  -   -   -  7 11 mph 1023.8mb 62f
8:20pm  -   -   -  9 11 mph 1023.8mb 62f
8:10pm  -   -   -  7 11 mph 1024mb 62f
8:00pm  -   -   -  4 7 mph 1023.8mb 62f
7:50pm 3.5ft 7s 6s 7 11 mph 1023.9mb 62f
7:40pm 3.5ft  -  6s 7 9 mph 1024mb 62f
7:30pm  -   -   -  7 7 mph 1024.1mb 62f
7:20pm  -   -   -  4 7 mph 1024.1mb 62f
7:10pm  -   -   -  4 9 mph 1024.1mb 61f
7:00pm  -   -   -  7 9 mph 1024mb 62f
6:50pm 3.5ft 8s 6s 7 9 mph 1023.9mb 62f
6:40pm 3.5ft  -  6s 7 9 mph 1023.8mb 62f
6:30pm  -   -   -  7 9 mph 1023.9mb 62f
6:20pm  -   -   -  4 9 mph 1023.9mb 62f
6:10pm  -   -   -  2 4 mph 1023.9mb 61f
6:00pm  -   -   -  4 9 mph 1024mb 61f
5:50pm 3.5ft 7s 6s 4 9 mph 1023.9mb 61f
5:40pm 3.5ft  -  6s 7 9 mph 1023.9mb 61f
5:30pm  -   -   -  4 7 mph 1023.9mb 61f
5:20pm  -   -   -  7 9 mph 1024mb 61f
5:10pm  -   -   -  7 9 mph 1024.1mb 61f
5:00pm  -   -   -  9 11 mph 1024mb 62f
4:50pm 4ft 7s 6s 7 11 mph 1023.8mb 62f
4:40pm 4ft  -  6s 4 9 mph 1023.7mb 62f
4:30pm  -   -   -  9 13 mph 1023.9mb 62f
4:20pm  -   -   -  7 11 mph 1023.9mb 62f
4:10pm  -   -   -  11 18 mph 1023.9mb 62f
4:00pm  -   -   -  9 11 mph 1023.9mb 62f
3:50pm 4.5ft 7s 6s 9 16 mph 1023.9mb 62f
3:40pm  -   -   -  9 11 mph 1023.9mb 62f
3:30pm  -   -   -  11 13 mph 1023.9mb 62f
3:20pm  -   -   -  9 13 mph 1023.8mb 62f
3:10pm  -   -   -  9 13 mph 1023.6mb 62f
3:00pm  -   -   -  9 13 mph 1023.5mb 62f
2:50pm 4.5ft 7s 6s 9 16 mph 1023.3mb 62f
2:40pm  -   -   -  11 13 mph 1023.3mb 62f
2:30pm  -   -   -  11 13 mph 1023.2mb 63f
2:20pm  -   -   -  11 13 mph 1023.2mb 63f
2:10pm  -   -   -  9 13 mph 1023.1mb 63f
2:00pm  -   -   -  11 16 mph 1023.1mb 63f
1:50pm 4.5ft 7s 6s 11 16 mph 1023.1mb 63f
1:40pm 4.5ft  -  6s 11 13 mph 1023mb 63f
1:30pm  -   -   -  9 13 mph 1023.1mb 62f
1:20pm  -   -   -  13 16 mph 1023.1mb 62f
1:10pm  -   -   -  13 18 mph 1023.1mb 62f
1:00pm  -   -   -  16 18 mph 1023mb 62f
12:50pm 4.5ft 7s 5s 16 18 mph 1022.8mb 63f
12:40pm 4.5ft  -  5s 9 13 mph 1022.9mb 63f
12:30pm  -   -   -  11 18 mph 1023mb 63f
12:20pm  -   -   -  11 16 mph 1023.1mb 63f
12:10pm  -   -   -  11 16 mph 1023.1mb 63f
12:00pm  -   -   -  11 13 mph 1023.1mb 63f
11:50am 4.5ft 7s 6s 13 18 mph 1023.3mb 63f
11:40am  -   -   -  13 16 mph 1023.3mb 63f
11:30am  -   -   -  13 16 mph 1023.2mb 63f
11:20am  -   -   -  11 16 mph 1023.2mb 63f
11:10am  -   -   -  13 18 mph 1023.2mb 63f
11:00am  -   -   -  11 16 mph 1023.2mb 63f
10:50am 4.5ft 6s 6s 11 16 mph 1023.3mb 63f
10:40am 4.5ft  -  6s 11 16 mph 1023.2mb 64f
10:30am  -   -   -  11 16 mph 1023.2mb 64f
10:20am  -   -   -  11 13 mph 1023.1mb 64f
10:10am  -   -   -  11 16 mph 1023.1mb 64f
10:00am  -   -   -  11 13 mph 1023.2mb 64f
9:50am 4.5ft 7s 5s 11 16 mph 1023.3mb 64f
9:40am  -   -   -  13 18 mph 1023.4mb 64f
9:30am  -   -   -  11 16 mph 1023.6mb 64f
9:20am  -   -   -  11 16 mph 1023.6mb 64f
9:10am  -   -   -  11 16 mph 1023.4mb 64f
9:00am  -   -   -  11 13 mph 1023.6mb 64f
8:50am 4.5ft 6s 6s 13 18 mph 1023.6mb 64f
8:40am 4.5ft  -  6s 11 16 mph 1023.8mb 64f
8:30am  -   -   -  11 13 mph 1023.5mb 64f
8:20am  -   -   -  11 13 mph 1023.7mb 64f
8:10am  -   -   -  9 11 mph 1023.5mb 64f
8:00am  -   -   -  11 16 mph 1023.5mb 64f
7:50am 4ft 7s 6s 11 13 mph 1023.5mb 64f
7:40am 4ft  -  6s 11 16 mph 1023.6mb 64f
7:30am  -   -   -  11 16 mph 1023.8mb 64f
7:20am  -   -   -  13 16 mph 1023.7mb 64f
7:10am  -   -   -  13 18 mph 1023.9mb 64f
7:00am  -   -   -  11 16 mph 1023.8mb 64f
6:50am 4.5ft 7s 5s 11 18 mph 1023.7mb 64f
6:40am 4.5ft  -  5s 9 16 mph 1023.7mb 64f
6:30am  -   -   -  11 16 mph 1023.6mb 64f
6:20am  -   -   -  11 16 mph 1023.6mb 64f
6:10am  -   -   -  13 16 mph 1023.6mb 64f
6:00am  -   -   -  13 18 mph 1023.6mb 64f
5:50am 4.5ft 7s 6s 11 16 mph 1023.4mb 64f
5:40am 4.5ft  -  6s 11 16 mph 1023.4mb 64f
5:30am  -   -   -  13 18 mph 1023.4mb 64f
5:20am  -   -   -  13 16 mph 1023.5mb 64f
5:10am  -   -   -  13 18 mph 1023.7mb 64f
5:00am  -   -   -  13 18 mph 1023.7mb 64f
4:50am 4.5ft 11s 5s 13 18 mph 1023.6mb 64f
4:40am  -   -   -  13 18 mph 1023.3mb 64f
4:30am  -   -   -  13 18 mph 1023.3mb 64f
4:20am  -   -   -  16 20 mph 1023mb 64f
4:10am  -   -   -  13 18 mph 1023.1mb 64f
4:00am  -   -   -  13 20 mph 1023.2mb 64f
3:50am 4.5ft 6s 5s 16 20 mph 1023.1mb 64f
3:40am 4.5ft  -  5s 16 18 mph 1023.1mb 64f
3:30am  -   -   -  13 18 mph 1023.1mb 64f
3:20am  -   -   -  16 18 mph 1023.1mb 64f
3:10am  -   -   -  16 18 mph 1023mb 64f
3:00am  -   -   -  13 16 mph 1023mb 64f
2:50am 5ft 6s 5s 13 16 mph 1023mb 64f
2:40am 5ft  -  5s 16 20 mph 1023mb 64f
2:30am  -   -   -  16 18 mph 1022.9mb 64f
2:20am  -   -   -  13 18 mph 1022.8mb 64f
2:10am  -   -   -  16 20 mph 1022.8mb 64f
2:00am  -   -   -  16 18 mph 1022.8mb 64f
1:50am 5ft 7s 5s 16 18 mph 1022.8mb 64f
1:40am 5ft  -  5s 16 18 mph 1022.8mb 64f
1:30am  -   -   -  16 20 mph 1022.9mb 64f
1:20am  -   -   -  16 20 mph 1023mb 64f
1:10am  -   -   -  16 20 mph 1022.9mb 64f
1:00am  -   -   -  16 20 mph 1022.9mb 64f
12:50am 4.5ft 8s 5s 16 20 mph 1023mb 64f
12:40am 4.5ft  -  5s 18 20 mph 1022.9mb 64f
12:30am  -   -   -  18 22 mph 1022.9mb 64f
12:20am  -   -   -  18 20 mph 1022.9mb 64f
12:10am  -   -   -  18 20 mph 1023mb 64f
12:00am  -   -   -  18 20 mph 1023.1mb 64f
Sat 09/23 11:50pm 4.5ft 8s 6s 18 20 mph 1023mb 64f
11:40pm 4.5ft  -  6s 13 18 mph 1023.1mb 64f
11:30pm  -   -   -  9 13 mph 1023.2mb 64f
11:20pm  -   -   -  9 11 mph 1023.3mb 64f
11:10pm  -   -   -  9 13 mph 1023.3mb 63f
11:00pm  -   -   -  11 16 mph 1023.3mb 63f
10:50pm 4.5ft 8s 5s 11 13 mph 1023.3mb 63f
10:40pm 4.5ft  -  5s 9 13 mph 1023.4mb 62f
10:30pm  -   -   -  11 16 mph 1023.5mb 62f
10:20pm  -   -   -  16 18 mph 1023.4mb 62f
10:10pm  -   -   -  18 22 mph 1023.4mb 63f
10:00pm  -   -   -  16 20 mph 1023.3mb 63f
9:50pm 4.5ft 8s 5s 13 18 mph 1023.3mb 62f
9:40pm 4.5ft  -  5s 16 18 mph 1023.2mb 62f
9:30pm  -   -   -  18 20 mph 1023.3mb 63f
9:20pm  -   -   -  18 20 mph 1023.2mb 64f
9:10pm  -   -   -  18 20 mph 1023.2mb 64f
9:00pm  -   -   -  16 20 mph 1023.3mb 64f
8:50pm 4.5ft 8s 6s 13 20 mph 1023.3mb 63f
8:40pm 4.5ft  -  6s 13 16 mph 1023.4mb 63f
8:30pm  -   -   -  13 18 mph 1023.5mb 62f
8:20pm  -   -   -  13 18 mph 1023.5mb 62f
8:10pm  -   -   -  16 18 mph 1023.5mb 62f
8:00pm  -   -   -  13 18 mph 1023.4mb 63f
7:50pm 4.5ft 8s 6s 13 16 mph 1023.4mb 64f
7:40pm 4.5ft  -  6s 13 18 mph 1023.3mb 64f
7:30pm  -   -   -  13 16 mph 1023.4mb 64f
7:20pm  -   -   -  11 13 mph 1023.3mb 64f
7:10pm  -   -   -  13 16 mph 1023.4mb 63f
7:00pm  -   -   -  11 16 mph 1023.4mb 63f
6:50pm 4.5ft 8s 5s 11 13 mph 1023.4mb 62f
6:40pm 4.5ft  -  5s 13 18 mph 1023.3mb 62f
6:30pm  -   -   -  13 20 mph 1023.3mb 63f
6:20pm  -   -   -  16 18 mph 1023.2mb 64f
6:10pm  -   -   -  16 18 mph 1023.3mb 63f
6:00pm  -   -   -  16 20 mph 1023.2mb 64f
5:50pm 4.5ft 8s 5s 16 18 mph 1023.2mb 64f
5:40pm  -   -   -  16 20 mph 1023.1mb 64f
5:30pm  -   -   -  16 20 mph 1023.1mb 64f
5:20pm  -   -   -  18 20 mph 1023.1mb 64f
5:10pm  -   -   -  16 20 mph 1023mb 64f
5:00pm  -   -   -  16 20 mph 1023mb 64f
4:50pm 5ft 8s 5s 18 20 mph 1022.9mb 64f
4:40pm 5ft  -  5s 18 20 mph 1022.9mb 64f
4:30pm  -   -   -  18 22 mph 1022.9mb 64f
4:20pm  -   -   -  18 20 mph 1022.8mb 64f
4:10pm  -   -   -  18 22 mph 1022.8mb 64f
4:00pm  -   -   -  16 22 mph 1022.8mb 63f
3:50pm 5ft 8s 6s 18 25 mph 1022.8mb 63f
3:40pm  -   -   -  18 25 mph 1022.7mb 65f
3:30pm  -   -   -  13 18 mph 1022.6mb 65f
3:20pm  -   -   -  13 18 mph 1022.7mb 65f
3:10pm  -   -   -  16 18 mph 1022.6mb 65f
3:00pm  -   -   -  16 18 mph 1022.6mb 64f
2:50pm 5ft 8s 6s 13 18 mph 1022.5mb 64f
2:40pm  -   -   -  16 18 mph 1022.5mb 64f
2:30pm  -   -   -  13 16 mph 1022.4mb 64f
2:20pm  -   -   -  13 18 mph 1022.3mb 64f
2:10pm  -   -   -  13 18 mph 1022.4mb 63f
2:00pm  -   -   -  11 16 mph 1022.4mb 63f
1:50pm 5ft 8s 6s 13 16 mph 1022.3mb 63f
1:40pm 5ft  -  6s 13 16 mph 1022.3mb 63f
1:30pm  -   -   -  13 18 mph 1022.3mb 63f
1:20pm  -   -   -  16 20 mph 1022.2mb 62f
1:10pm  -   -   -  13 18 mph 1022mb 62f
1:00pm  -   -   -  13 18 mph 1022mb 62f
12:50pm 5.5ft 8s 6s 13 18 mph 1021.9mb 62f
12:40pm 5.5ft  -  6s 13 18 mph 1021.9mb 63f
12:30pm  -   -   -  13 18 mph 1021.8mb 63f
12:20pm  -   -   -  11 16 mph 1021.8mb 63f
12:10pm  -   -   -  13 16 mph 1021.8mb 64f
12:00pm  -   -   -  13 18 mph 1021.8mb 64f
11:50am 6ft 8s 6s 13 18 mph 1021.9mb 64f
11:40am  -   -   -  13 18 mph 1021.8mb 64f
11:30am  -   -   -  13 18 mph 1021.8mb 64f
11:20am  -   -   -  13 18 mph 1021.8mb 64f
11:10am  -   -   -  16 20 mph 1021.7mb 64f
11:00am  -   -   -  16 20 mph 1021.8mb 64f
10:50am 5.5ft 8s 6s 16 20 mph 1021.8mb 63f
10:40am 5.5ft  -  6s 13 18 mph 1021.9mb 63f
10:30am  -   -   -  13 18 mph 1021.9mb 63f
10:20am  -   -   -  13 18 mph 1022mb 63f
10:10am  -   -   -  13 20 mph 1022mb 63f
10:00am  -   -   -  13 18 mph 1022.2mb 63f
9:50am 5ft 8s 6s 13 18 mph 1022.3mb 63f
9:40am 5ft  -  6s 13 18 mph 1022.4mb 63f
9:30am  -   -   -  13 18 mph 1022.4mb 63f
9:20am  -   -   -  13 18 mph 1022.4mb 63f
9:10am  -   -   -  13 16 mph 1022.4mb 63f
9:00am  -   -   -  13 18 mph 1022.4mb 63f
8:50am 5.5ft 8s 6s 13 18 mph 1022.4mb 63f
8:40am  -   -   -  13 18 mph 1022.5mb 63f
8:30am  -   -   -  13 16 mph 1022.5mb 63f
8:20am  -   -   -  13 18 mph 1022.6mb 63f
8:10am  -   -   -  13 18 mph 1022.7mb 63f
8:00am  -   -   -  13 18 mph 1022.8mb 63f
7:50am 6ft 8s 6s 13 18 mph 1022.8mb 63f
7:40am 6ft  -  6s 16 18 mph 1022.8mb 63f
7:30am  -   -   -  16 20 mph 1022.7mb 63f
7:20am  -   -   -  16 20 mph 1022.8mb 63f
7:10am  -   -   -  16 20 mph 1022.8mb 63f
7:00am  -   -   -  16 20 mph 1022.9mb 63f
6:50am 6ft 9s 6s 16 20 mph 1022.9mb 63f
6:40am 6ft  -  6s 16 20 mph 1022.9mb 63f
6:30am  -   -   -  16 20 mph 1023mb 63f
6:20am  -   -   -  16 20 mph 1022.9mb 63f
6:10am  -   -   -  16 20 mph 1022.8mb 63f
6:00am  -   -   -  18 22 mph 1022.8mb 63f
5:50am 6ft 9s 6s 16 20 mph 1022.9mb 63f
5:40am 6ft  -  6s 16 20 mph 1022.8mb 63f
5:30am  -   -   -  16 20 mph 1022.8mb 63f
5:20am  -   -   -  18 22 mph 1022.8mb 63f
5:10am  -   -   -  18 22 mph 1022.9mb 63f
5:00am  -   -   -  18 22 mph 1022.9mb 63f
4:50am 6.5ft 9s 6s 16 20 mph 1022.8mb 63f
4:40am 6.5ft  -  6s 18 22 mph 1022.8mb 63f
4:30am  -   -   -  18 20 mph 1022.7mb 63f
4:20am  -   -   -  18 22 mph 1022.8mb 63f
4:10am  -   -   -  18 22 mph 1022.7mb 63f
4:00am  -   -   -  20 25 mph 1022.6mb 63f
3:50am 7ft 8s 6s 18 22 mph 1022.5mb 63f
3:40am 7ft  -  6s 18 22 mph 1022.6mb 63f
3:30am  -   -   -  18 22 mph 1022.6mb 63f
3:20am  -   -   -  18 25 mph 1022.5mb 63f
3:10am  -   -   -  18 22 mph 1022.4mb 63f
3:00am  -   -   -  18 25 mph 1022.3mb 63f
2:50am 7ft 9s 6s 18 22 mph 1022.4mb 63f
2:40am  -   -   -  18 22 mph 1022.4mb 63f
2:30am  -   -   -  18 20 mph 1022.5mb 63f
2:20am  -   -   -  18 22 mph 1022.4mb 63f
2:10am  -   -   -  18 22 mph 1022.3mb 63f
2:00am  -   -   -  18 22 mph 1022.3mb 63f
1:50am 7.5ft 9s 6s 18 22 mph 1022.3mb 63f
1:40am 7.5ft  -  6s 18 22 mph 1022.3mb 63f
1:30am  -   -   -  18 22 mph 1022.2mb 63f
1:20am  -   -   -  18 22 mph 1022.2mb 63f
1:10am  -   -   -  20 25 mph 1022.2mb 63f
1:00am  -   -   -  20 27 mph 1022.2mb 63f
12:50am 8ft 9s 6s 20 25 mph 1022.2mb 63f
12:40am 8ft  -  6s 20 25 mph 1022.2mb 63f
12:30am  -   -   -  20 25 mph 1022.2mb 63f
12:20am  -   -   -  20 25 mph 1022.2mb 63f
12:10am  -   -   -  20 25 mph 1022.2mb 63f
12:00am  -   -   -  20 25 mph 1022.2mb 63f
Fri 09/22 11:50pm 8ft 9s 6s 20 27 mph 1022.2mb 63f
11:40pm 8ft  -  6s 20 25 mph 1022.2mb 63f
11:20pm  -   -   -  20 25 mph 1022.1mb 63f
11:10pm  -   -   -  18 22 mph 1022.2mb 63f
11:00pm  -   -   -  20 22 mph 1022.3mb 63f
10:50pm 8ft 9s 6s 20 25 mph 1022.3mb 63f
10:40pm 8ft  -  6s 18 25 mph 1022.4mb 64f
10:30pm  -   -   -  20 25 mph 1022.4mb 64f
10:20pm  -   -   -  18 25 mph 1022.3mb 64f
10:10pm  -   -   -  20 25 mph 1022.3mb 64f
10:00pm  -   -   -  20 25 mph 1022.2mb 64f
9:50pm 8ft 9s 6s 20 25 mph 1022.2mb 64f
9:40pm 8ft  -  6s 18 22 mph 1022.2mb 64f
9:30pm  -   -   -  18 25 mph 1022.2mb 64f
9:20pm  -   -   -  20 22 mph 1022.2mb 63f
9:10pm  -   -   -  20 25 mph 1022.1mb 63f
9:00pm  -   -   -  20 25 mph 1022.2mb 64f
8:50pm 9ft 9s 7s 20 25 mph 1022.2mb 64f
8:40pm 9ft  -  7s 20 25 mph 1022.3mb 64f
8:30pm  -   -   -  18 25 mph 1022.2mb 64f
8:20pm  -   -   -  20 25 mph 1022.2mb 64f
8:10pm  -   -   -  20 25 mph 1022.2mb 64f
8:00pm  -   -   -  20 25 mph 1022.2mb 64f
7:50pm 9.5ft 9s 7s 20 25 mph 1022.3mb 64f
7:40pm 9.5ft  -  7s 20 25 mph 1022.3mb 64f
7:30pm  -   -   -  20 25 mph 1022.4mb 64f
7:20pm  -   -   -  20 25 mph 1022.3mb 64f
7:10pm  -   -   -  20 25 mph 1022.2mb 64f
7:00pm  -   -   -  20 25 mph 1022.4mb 64f
6:50pm 9ft 9s 6s 20 25 mph 1022.3mb 64f
6:40pm 9ft  -  6s 20 25 mph 1022.4mb 64f
6:30pm  -   -   -  20 25 mph 1022.4mb 64f
6:20pm  -   -   -  20 25 mph 1022.3mb 64f
6:10pm  -   -   -  22 27 mph 1022.3mb 64f
6:00pm  -   -   -  22 29 mph 1022.3mb 64f
5:50pm 9ft 10s 6s 20 25 mph 1022.3mb 64f
5:40pm  -   -   -  22 27 mph 1022.2mb 64f
5:30pm  -   -   -  22 27 mph 1022.2mb 63f
5:20pm  -   -   -  22 27 mph 1022.2mb 63f
5:10pm  -   -   -  22 27 mph 1022.1mb 63f
5:00pm  -   -   -  22 27 mph 1022mb 63f
4:50pm 9ft 10s 7s 22 27 mph 1021.9mb 64f
4:40pm 9ft  -  7s 22 27 mph 1021.9mb 63f
4:30pm  -   -   -  22 27 mph 1021.8mb 63f
4:20pm  -   -   -  22 29 mph 1021.7mb 63f
4:10pm  -   -   -  22 29 mph 1021.7mb 63f
4:00pm  -   -   -  22 27 mph 1021.6mb 63f
3:50pm 10ft 9s 7s 22 29 mph 1021.5mb 63f
3:40pm 10ft  -  7s 22 27 mph 1021.4mb 63f
3:30pm  -   -   -  22 29 mph 1021.4mb 63f
3:20pm  -   -   -  25 29 mph 1021.4mb 63f
3:10pm  -   -   -  22 29 mph 1021.4mb 63f
3:00pm  -   -   -  25 29 mph 1021.4mb 63f
2:50pm 9.5ft 10s 6s 22 29 mph 1021.1mb 63f
2:40pm  -   -   -  22 29 mph 1021mb 63f
2:30pm  -   -   -  22 29 mph 1021.1mb 63f
2:20pm  -   -   -  22 29 mph 1021mb 63f
2:10pm  -   -   -  22 29 mph 1020.9mb 63f
2:00pm  -   -   -  25 31 mph 1020.9mb 63f
1:50pm 10ft 9s 7s 22 31 mph 1020.8mb 63f
1:40pm 10ft  -  7s 25 31 mph 1020.7mb 63f
1:30pm  -   -   -  22 29 mph 1020.6mb 63f
1:20pm  -   -   -  22 27 mph 1020.7mb 63f
1:10pm  -   -   -  22 29 mph 1020.7mb 63f
1:00pm  -   -   -  25 29 mph 1020.6mb 63f
12:50pm 10ft 10s 7s 22 29 mph 1020.5mb 63f
12:40pm 10ft  -  7s 25 31 mph 1020.4mb 63f
12:30pm  -   -   -  25 29 mph 1020.3mb 63f
12:20pm  -   -   -  25 31 mph 1020.3mb 63f
12:10pm  -   -   -  22 31 mph 1020.3mb 63f
12:00pm  -   -   -  22 31 mph 1020.3mb 63f
11:50am 11ft 10s 7s 22 29 mph 1020.2mb 63f
11:40am 11ft  -  7s 25 29 mph 1020.2mb 63f
11:30am  -   -   -  25 29 mph 1020.2mb 63f
11:20am  -   -   -  22 29 mph 1020.3mb 63f
11:10am  -   -   -  22 27 mph 1020.3mb 63f
11:00am  -   -   -  22 27 mph 1020.3mb 64f
10:50am 10ft 10s 7s 25 31 mph 1020.2mb 63f
10:40am 10ft  -  7s 22 29 mph 1020.2mb 63f
10:30am  -   -   -  22 29 mph 1020.2mb 63f
10:20am  -   -   -  22 29 mph 1020.2mb 64f
10:10am  -   -   -  22 27 mph 1020.2mb 64f
10:00am  -   -   -  22 27 mph 1020.2mb 64f
9:50am 11ft 10s 7s 22 27 mph 1020.2mb 63f
9:40am  -   -   -  22 29 mph 1020.3mb 63f
9:30am  -   -   -  22 27 mph 1020.3mb 64f
9:20am  -   -   -  22 27 mph 1020.2mb 64f
9:10am  -   -   -  25 29 mph 1020.1mb 63f
9:00am  -   -   -  25 31 mph 1020.1mb 63f
8:50am 11ft 10s 7s 22 29 mph 1020.1mb 63f
8:40am 11ft  -  7s 25 29 mph 1020mb 63f
8:30am  -   -   -  25 29 mph 1020.1mb 64f
8:20am  -   -   -  22 29 mph 1020.1mb 64f
8:10am  -   -   -  22 29 mph 1020.3mb 64f
8:00am  -   -   -  22 27 mph 1020.3mb 64f
7:50am 10ft 10s 7s 25 29 mph 1020.2mb 64f
7:40am 10ft  -  7s 25 31 mph 1020.3mb 64f
7:30am  -   -   -  25 31 mph 1020.2mb 64f
7:20am  -   -   -  25 29 mph 1020.3mb 63f
7:10am  -   -   -  25 31 mph 1020.3mb 64f
7:00am  -   -   -  22 31 mph 1020.3mb 64f
6:50am 12ft 9s 7s 22 29 mph 1020.3mb 64f
6:40am 12ft  -  7s 25 31 mph 1020.3mb 64f
6:30am  -   -   -  25 31 mph 1020.3mb 64f
6:20am  -   -   -  25 31 mph 1020.2mb 64f
6:10am  -   -   -  22 29 mph 1020.2mb 63f
6:00am  -   -   -  25 31 mph 1020.1mb 64f
5:50am 11.5ft 10s 7s 25 29 mph 1020.1mb 64f
5:40am  -   -   -  22 29 mph 1020mb 63f
5:30am  -   -   -  25 31 mph 1020.1mb 63f
5:20am  -   -   -  27 34 mph 1020.1mb 64f
5:10am  -   -   -  27 31 mph 1020mb 64f
5:00am  -   -   -  27 31 mph 1020.1mb -
4:50am 11ft 9s 7s 27 34 mph 1020mb 64f
4:40am  -   -   -  27 34 mph 1020mb 64f
4:30am  -   -   -  27 34 mph 1020mb 64f
4:20am  -   -   -  27 36 mph 1020mb 64f
4:10am  -   -   -  25 34 mph 1019.8mb 64f
4:00am  -   -   -  27 34 mph 1019.8mb 64f
3:50am 11.5ft 10s 7s 27 34 mph 1019.6mb 64f
3:40am  -   -   -  27 36 mph 1019.6mb 64f
3:30am  -   -   -  29 36 mph 1019.5mb 64f
3:20am  -   -   -  27 36 mph 1019.4mb 64f
3:10am  -   -   -  27 34 mph 1019.4mb 64f
3:00am  -   -   -  29 34 mph 1019.3mb 64f
2:50am 12.5ft 9s 7s 27 34 mph 1019.3mb 64f
2:40am 12.5ft  -  7s 29 36 mph 1019.3mb 63f
2:30am  -   -   -  27 34 mph 1019.3mb 64f
2:20am  -   -   -  27 34 mph 1019.2mb 64f
2:10am  -   -   -  27 36 mph 1019.2mb 64f
2:00am  -   -   -  27 36 mph 1019.2mb 64f
1:50am 11ft 9s 7s 29 36 mph 1019.2mb 64f
1:40am 11ft  -  7s 27 34 mph 1019.2mb 64f
1:30am  -   -   -  29 36 mph 1019.2mb 64f
1:20am  -   -   -  27 34 mph 1019.2mb 64f
1:10am  -   -   -  27 34 mph 1019.2mb 64f
1:00am  -   -   -  25 36 mph 1019.1mb 63f
12:50am 12.5ft 8s 7s 27 34 mph 1019mb 64f
12:40am  -   -   -  27 34 mph 1019mb 64f
12:30am  -   -   -  25 31 mph 1019mb 64f
12:20am  -   -   -  25 34 mph 1018.9mb 64f
12:10am  -   -   -  27 34 mph 1018.9mb 63f
12:00am  -   -   -  25 31 mph 1018.9mb 64f
Thu 09/21 11:50pm 12ft 10s 7s 27 34 mph 1018.9mb 64f
11:40pm 12ft  -  7s 25 34 mph 1018.9mb 64f
11:20pm  -   -   -  25 31 mph 1018.9mb 64f
11:10pm  -   -   -  25 34 mph 1018.9mb 64f
11:00pm  -   -   -  27 34 mph 1018.9mb 64f
10:50pm 12ft 9s 7s 25 34 mph 1018.9mb 64f
10:40pm  -   -   -  27 34 mph 1018.9mb 64f
10:30pm  -   -   -  27 34 mph 1018.9mb 64f
10:20pm  -   -   -  25 34 mph 1019mb 64f
10:10pm  -   -   -  27 34 mph 1018.9mb 64f
10:00pm  -   -   -  25 34 mph 1018.9mb 64f
9:50pm 11.5ft 10s 7s 25 31 mph 1019mb 64f
9:40pm 11.5ft  -  7s 25 31 mph 1019.1mb 64f
9:30pm  -   -   -  27 31 mph 1019.1mb 64f
9:20pm  -   -   -  25 31 mph 1019.1mb 64f
9:10pm  -   -   -  22 29 mph 1019.1mb 64f
9:00pm  -   -   -  25 31 mph 1019.2mb 64f
8:50pm 12ft 10s 7s 27 34 mph 1019.2mb 64f
8:40pm 12ft  -  7s 25 34 mph 1019.2mb 64f
8:30pm  -   -   -  25 31 mph 1019.2mb 64f
8:20pm  -   -   -  27 34 mph 1019.2mb 64f
8:10pm  -   -   -  25 34 mph 1019.2mb 64f
8:00pm  -   -   -  27 34 mph 1019.2mb 64f
7:50pm 13ft 10s 7s 27 34 mph 1019.1mb 64f
7:40pm 13ft  -  7s 25 31 mph 1019.1mb 64f
7:30pm  -   -   -  27 36 mph 1019.2mb 63f
7:20pm  -   -   -  25 34 mph 1019.2mb 64f
7:10pm  -   -   -  25 31 mph 1019.3mb 64f
7:00pm  -   -   -  27 34 mph 1019.3mb 64f
6:50pm 11.5ft 9s 7s 27 34 mph 1019.3mb 64f
6:40pm 11.5ft  -  7s 25 31 mph 1019.4mb 64f
6:30pm  -   -   -  25 31 mph 1019.4mb 64f
6:20pm  -   -   -  27 34 mph 1019.5mb 64f
6:10pm  -   -   -  29 36 mph 1019.3mb 64f
6:00pm  -   -   -  27 36 mph 1019.3mb 64f
5:50pm 12ft 10s 7s 27 36 mph 1019.2mb 63f
5:40pm  -   -   -  27 36 mph 1019.3mb 64f
5:30pm  -   -   -  27 36 mph 1019.3mb 64f
5:20pm  -   -   -  27 34 mph 1019.3mb 63f
5:10pm  -   -   -  27 36 mph 1019.3mb 64f
5:00pm  -   -   -  27 36 mph 1019.1mb 64f
4:50pm 12ft 10s 7s 27 31 mph 1019.2mb 63f
4:40pm 12ft  -  7s 27 34 mph 1019.1mb 63f
4:30pm  -   -   -  27 36 mph 1019mb 64f
4:20pm  -   -   -  27 36 mph 1019mb 63f
4:10pm  -   -   -  29 36 mph 1019.1mb 63f
4:00pm  -   -   -  29 36 mph 1019mb 63f
3:50pm  -   -   -  29 36 mph 1019mb 63f
3:40pm  -   -   -  27 34 mph 1019mb 63f
3:30pm  -   -   -  27 34 mph 1018.9mb 63f
3:20pm  -   -   -  29 36 mph 1018.8mb 63f
3:10pm  -   -   -  29 36 mph 1018.7mb 63f
3:00pm  -   -   -  27 34 mph 1018.8mb 63f
2:50pm 11.5ft 10s 7s 27 34 mph 1018.7mb 63f
2:40pm 11.5ft  -  7s 27 34 mph 1018.7mb 63f
2:30pm  -   -   -  27 36 mph 1018.7mb 63f
2:20pm  -   -   -  29 38 mph 1018.6mb 63f
2:10pm  -   -   -  29 36 mph 1018.4mb 63f
2:00pm  -   -   -  29 36 mph 1018.3mb 63f
1:50pm 11ft 10s 7s 29 38 mph 1018.2mb 63f
1:40pm 11ft  -  7s 27 38 mph 1018.1mb 62f
1:30pm  -   -   -  25 29 mph 1018.3mb 60f
1:20pm  -   -   -  29 36 mph 1018.4mb 62f
1:10pm  -   -   -  27 34 mph 1018.1mb 63f
1:00pm  -   -   -  25 31 mph 1018mb 63f
12:50pm 12.5ft 10s 7s 25 31 mph 1018mb 62f
12:40pm  -   -   -  25 29 mph 1018.2mb 61f
12:30pm  -   -   -  27 34 mph 1018.3mb 62f
12:20pm  -   -   -  27 34 mph 1018.3mb 63f